Regional Weather Roundup
Issued by NWS Goodland, KS

Home | Current Version | Previous Version | Graphics & Text | Print | Product List | Glossary Off
Versions: 1 2 3 4 5 6 7 8 9 10 11 12 13 14 15 16 17 18 19 20 21 22 23 24 25 26 27 28 29 30 31 32 33 34 35 36 37 38 39 40 41 42 43 44 45 46 47 48 49 50

000
ASUS43 KGLD 110208
RWRGLD

GOODLAND FORECAST AREA HOURLY WEATHER ROUNDUP
NATIONAL WEATHER SERVICE GOODLAND KS
700 PM MST SAT DEC 10 2016

...OFFICIAL OBSERVATIONS...

CITY           SKY/WX    TMP DP  RH WIND       PRES   REMARKS
GOODLAND KS    CLOUDY    31  25  78 S10       29.74R
HILL CITY KS   CLOUDY    31  24  75 SE6       29.80F
IMPERIAL NEB   CLOUDY    27  24  89 CALM      29.75F
MCCOOK NEB     CLOUDY    29  23  78 E6        29.78F
AKRON CO       CLOUDY    39  26  59 NE3       29.71S
BURLINGTON CO  CLOUDY    31  21  66 CALM      29.73R
LIMON CO       CLOUDY    34  21  59 VRB3      29.73S
$$

...UNOFFICIAL OBSERVATIONS...

CITY           SKY/WX    TMP DP  RH WIND       PRES   REMARKS
COLBY KS       CLEAR     30  28  93 SE3       29.77S
LENORA KS        N/A     35  32  89 MISG        N/A
NORTON KS      CLEAR     28  19  69 E3        29.79S
OBERLIN KS     FAIR      32  25  74 SE5       29.82
SHARON SPRINGS   N/A     29  24  81 CALM        N/A
TRENTON NEB      N/A     28  32 100 CALM        N/A
KIT CARSON CO    N/A     33  20  59 CALM        N/A
YUMA CO        FAIR      27  23  86 S3        29.72F
$$



USA.gov is the U.S. government's official web portal to all federal, state and local government web resources and services.